SCP
0 0 0 0 0 0 0 0 0 0 0 0 0 0 0 0 0 0 0 0 0 0 0 0 0 0 0 0 0 0 0 0 0 0 0 0 0 0 0 0 0 0 0
0 0 0 0 0 0 0 0 0 0 0 0 0 0 0 0 0 0 0 0 0 0 0 0 0 0 0 0 0 0 0 0 0 0 0 0 0 0 0 0 0 0 0
0 0 0 0 0 0 0 0 0 0 0 0 0 0 0 0 0 0 0 0 0 0 0 0 0 0 0 0 0 0 0 0 0 0 0 0 0 0 0 0 0 0 0
0 0 0 0 0 0 0 0 0 0 0 0 0 0 0 0 0 0 0 0 0 0 0 0 0 0 0 0 0 0 0 0 0 0 0 0 0 0 0 0 0 0 0
0 0 0 0 0 0 0 0 0 0 0 0 0 0 0 0 0 0 0 0 0 0 0 0 0 0 0 0 0 0 0 0 0 0 0 0 0 0 0 0 0 0 0
0 0 0 0 0 0 0 0 0 0 0 0 0 0 0 0 0 0 0 0 0 0 0 0 0 0 0 0 0 0 0 0 0 0 0 0 0 0 0 0 0 0 0
0 0 0 0 0 0 0 0 0 0 0 0 0 0 0 0 0 0 0 0 0 0 0 0 0 0 0 0 0 0 0 0 0 0 0 0 0 0 0 0 0 0 0
0 0 0 0 0 0 0 0 0 0 0 0 0 0 0 0 0 0 0 0 0 0 0 0 0 0 0 0 0 0 0 0 0 0 0 0 0 0 0 0 0 0 0
0 0 0 0 0 0 0 0 0 0 0 0 0 0 0 0 0 0 0 0 0 0 0 0 0 0 0 0 0 0 0 0 0 0 0 0 0 0 0 0 0 0 0
0 0 0 0 0 0 0 0 0 0 0 0 0 0 0 0 0 0 0 0 0 0 0 0 0 0 0 0 0 0 0 0 0 0 0 0 0 0 0 0 0 0 0
0 0 0 0 0 0 0 0 0 0 0 0 0 0 0 0 0 0 0 0 0 0 0 0 0 0 0 0 0 0 0 0 0 0 0 0 0 0 0 0 0 0 0
0 0 0 0 0 0 0 0 0 0 0 0 0 0 0 0 0 0 0 0 0 0 0 0 0 0 0 0 0 0 0 0 0 0 0 0 0 0 0 0 0 0 0
0 0 0 0 0 0 0 0 0 0 0 0 0 0 0 0 0 0 0 0 0 0 0 0 0 0 0 0 0 0 0 0 0 0 0 0 0 0 0 0 0 0 0
0 0 0 0 0 0 0 0 0 0 0 0 0 0 0 0 0 0 0 0 0 0 0 0 0 0 0 0 0 0 0 0 0 0 0 0 0 0 0 0 0 0 0
-0 0 -0 0 0 0 0 0 0 0 0 0 0 0 0 0 0 0 0 0 0 -0 0 0 0 0 0 0 0 0 0 0 0 0 0 0 0 0 0 0 0 0 0
0 -0 -0 -0 0 0 0 0 0 0 0 0 0 0 0 0 0 0 0 0 0 0 0 0 0 0 0 0 0 0 0 0 0 0 0 0 0 0 0 0 0 0 0
-0 0 0 -0 0 0 0 0 0 0 0 0 0 0 0 0 0 0 0 0 0 0 0 0 0 0 0 0 0 0 0 0 0 0 0 0 0 0 0 0 0 0 0
-0 -0 0 -0 -0 0 0 0 0 0 0 0 0 0 0 0 0 0 0 0 0 0 0 0 0 0 0 0 0 0 0 0 0 0 0 0 0 0 0 0 0 0 0
0 0 0 0 0 0 0 0 0 0 0 0 0 0 0 0 0 0 0 0 0 0 0 0 0 0 0 0 0 0 0 0 0 0 0 0 0 0 0 0 0 0 0
0 0 0 0 0 0 0 0 0 0 0 0 0 0 0 0 0 0 0 0 0 0 0 0 0 0 0 0 0 0 0 0 0 0 0 0 0 0 0 0 0 0 0
0 0 0 0 0 0 0 0 0 0 0 0 0 0 0 0 0 0 0 0 0 0 0 0 0 0 0 0 0 0 0 0 0 0 0 0 0 0 0 0 0 0 0
0 0 0 0 0 0 0 0 0 0 0 0 0 0 0 0 0 0 0 0 0 0 0 0 0 0 0 0 0 0 0 0 0 0 0 0 0 0 0 0 0 0 0
0 0 0 0 0 0 0 0 0 0 0 0 0 0 0 0 0 0 0 0 0 0 0 0 0 0 0 0 0 0 0 0 0 0 0 0 0 0 0 0 0 0 0
0 0 0 0 0 0 0 0 0 0 0 0 0 0 0 0 0 0 0 0 0 0 0 0 0 0 0 0 0 0 0 0 0 0 0 0 0 0 0 0 0 0 0
0 0 0 0 0 0 0 0 0 0 0 0 0 0 0 0 0 0 0 0 0 0 0 0 0 0 0 0 0 0 0 0 0 0 0 0 0 0 0 0 0 0 0
0 0 0 0 0 0 0 0 0 0 0 0 0 0 0 0 0 0 0 0 0 0 0 0 0 0 0 0 0 0 0 0 0 0 0 0 0 0 0 0 0 0 0
Wind_Speed_500mb
14 19 26 27 19 18 22 37 44 37 26 20 20 20 18 18 20 20 26 25 19 12 7 13 10 3 6 9 13 14 13 14 15 16 15 15 18 20 22 25 27 29 30
18 18 22 20 15 11 25 36 34 27 23 21 24 21 19 19 22 24 22 34 23 35 37 27 24 11 3 8 13 10 10 9 14 13 14 16 18 20 22 26 27 29 34
13 22 17 11 11 13 20 27 32 33 30 24 20 20 22 23 26 26 32 29 28 34 27 17 13 19 8 5 8 6 6 9 12 10 13 14 17 17 22 25 27 30 32
21 18 13 14 12 15 16 23 31 34 31 27 25 28 28 28 28 27 32 30 34 31 27 16 14 11 17 7 3 4 2 6 8 10 13 15 18 19 22 24 28 31 33
25 19 20 15 11 16 18 19 24 27 30 33 35 33 27 27 28 30 33 34 34 34 31 30 14 17 17 20 8 3 3 4 5 8 12 15 16 20 21 24 30 30 33
33 34 29 25 17 18 19 29 31 35 36 33 31 27 25 25 26 28 29 32 40 44 41 33 25 22 22 19 21 12 3 4 4 8 10 13 15 19 22 24 28 30 32
34 35 34 36 30 28 29 32 34 36 39 35 28 22 21 22 21 22 26 25 28 29 29 25 23 23 24 25 22 16 12 4 2 5 6 11 13 16 21 24 27 30 34
26 26 22 34 34 37 32 35 40 39 36 36 28 22 16 17 16 16 18 19 18 19 20 18 18 19 21 23 25 27 23 16 6 2 5 9 12 16 20 25 26 31 34
26 23 21 18 29 27 31 37 37 35 40 41 28 18 10 7 11 16 16 19 18 18 17 16 14 15 18 18 20 24 24 23 20 13 6 6 9 12 18 22 27 30 34
29 21 15 19 15 19 26 34 31 33 35 40 32 20 13 12 7 5 8 11 18 18 17 18 16 17 18 19 19 21 20 20 18 15 11 11 11 12 16 21 27 30 34
37 32 22 16 14 12 21 27 26 28 31 31 37 31 31 23 11 7 1 9 14 17 16 17 16 16 18 21 20 21 19 17 14 15 13 11 12 15 14 17 24 29 34
48 41 33 26 20 11 17 24 31 26 29 24 24 27 16 8 8 5 11 18 19 16 19 19 18 19 20 22 21 23 21 19 16 15 14 12 12 16 15 17 21 27 34
46 48 38 29 30 26 15 14 21 34 22 27 24 23 20 17 10 19 20 19 14 14 15 17 19 18 19 21 22 21 21 20 18 16 13 12 12 16 16 17 20 26 33
50 47 35 28 29 27 22 18 20 23 33 30 31 22 23 13 17 18 16 15 10 10 14 16 14 15 14 17 18 17 18 18 17 16 14 12 14 15 15 15 20 25 32
49 47 42 28 22 26 30 29 19 20 24 23 23 29 31 20 18 24 22 23 25 12 8 6 10 15 16 16 15 15 17 19 19 18 15 13 13 13 15 15 19 24 30
40 40 37 37 27 22 23 26 25 23 13 10 13 16 13 20 32 37 32 19 19 17 16 16 19 22 20 18 18 18 18 18 17 17 15 14 12 11 13 14 18 24 31
36 38 40 36 35 28 22 19 26 26 24 13 20 24 29 36 39 28 24 24 24 20 25 18 17 19 21 21 19 20 20 19 17 17 15 13 12 11 11 14 18 24 30
37 37 38 38 37 35 30 27 20 23 30 24 12 12 12 17 20 21 26 21 22 24 26 19 13 18 23 25 24 23 21 19 16 16 16 14 12 10 10 13 16 24 31
30 32 32 33 37 41 38 31 28 23 15 24 20 12 12 11 13 17 21 24 26 30 18 15 21 21 21 24 28 25 24 20 16 17 16 15 12 10 11 13 18 22 30
28 25 27 30 32 34 39 38 34 27 24 18 15 13 10 9 10 9 13 19 21 18 20 19 17 15 14 20 30 27 24 21 19 19 16 14 12 10 11 13 18 23 29
32 30 25 22 26 30 33 37 37 35 30 23 23 14 14 14 13 13 14 15 14 14 13 13 15 17 17 22 24 23 24 23 21 21 22 20 16 13 11 12 16 23 29
35 31 29 27 24 25 29 31 34 37 35 31 23 19 15 15 13 14 15 13 14 14 13 13 14 17 15 20 20 20 21 20 16 19 21 23 22 15 12 11 14 20 30
40 36 33 31 27 25 24 29 30 32 34 35 33 26 14 11 14 13 15 15 14 14 16 15 13 14 13 17 19 21 20 18 17 19 15 9 18 16 12 9 12 18 29
42 41 37 35 31 27 26 24 26 26 30 33 35 33 25 5 7 11 11 13 14 14 15 15 15 16 17 16 17 19 19 14 13 12 14 10 12 12 9 8 11 18 26
46 41 38 37 36 29 28 27 26 23 24 27 30 32 30 23 6 9 9 11 15 16 15 13 15 14 16 15 14 14 15 6 8 6 9 9 7 3 4 7 11 17 24
47 45 42 37 38 36 29 29 28 24 23 22 25 29 31 26 10 6 10 11 13 13 15 13 12 12 15 13 10 10 7 5 4 3 8 3 1 3 9 11 11 16 23
Wind_Direction_500mb
310 319 322 319 302 276 230 196 179 161 175 198 203 207 202 189 176 168 156 159 136 122 137 116 97 61 53 54 75 69 69 62 64 60 46 33 29 26 19 14 11 11 9
313 322 326 320 303 243 185 176 165 164 168 195 201 197 194 189 182 174 167 171 159 141 142 128 113 69 29 19 78 74 65 55 61 49 44 29 21 21 10 11 10 8 10
306 319 325 298 312 236 220 189 175 182 180 196 209 205 196 192 188 184 180 180 183 172 169 164 126 100 49 24 65 81 62 40 44 38 31 16 21 11 11 8 9 11 3
310 317 302 269 262 247 214 204 182 178 181 189 204 207 198 197 197 189 179 187 190 205 220 229 196 154 99 76 5 43 39 38 32 25 31 26 9 10 13 6 12 3 3
302 299 288 282 254 228 213 203 186 184 184 194 200 201 207 208 209 208 202 204 213 218 232 256 257 207 164 123 68 301 329 4 11 16 27 29 6 8 10 6 10 1 1
287 280 267 269 258 218 209 203 201 189 191 200 202 208 202 215 216 217 216 221 227 234 241 249 248 232 219 173 138 127 70 329 349 20 28 31 10 6 7 5 3 360 358
286 288 291 281 244 238 219 212 205 204 195 198 201 200 205 210 224 226 227 224 232 237 238 238 235 223 217 217 206 193 164 182 333 14 27 26 11 6 1 2 2 359 359
320 303 298 280 287 254 239 228 216 205 200 197 193 203 212 222 223 229 235 235 230 231 234 231 228 229 226 227 237 247 246 247 250 313 20 15 10 8 1 4 357 359 358
340 328 315 302 301 274 257 240 225 217 204 195 197 186 187 210 201 241 233 245 243 237 236 234 234 241 244 243 245 253 258 266 268 275 275 319 345 0 3 0 357 357 358
350 347 348 315 294 290 260 237 236 232 221 210 199 193 175 190 175 169 216 244 255 246 245 247 243 248 253 257 259 264 266 269 274 268 267 287 307 333 355 359 355 356 355
14 360 2 356 308 273 261 248 237 238 241 229 224 223 229 246 248 226 336 338 276 262 256 258 255 258 265 265 268 272 280 283 277 269 269 284 304 310 329 349 352 351 351
17 22 25 18 2 329 268 252 232 229 244 252 248 228 221 194 231 229 263 275 288 276 260 263 263 264 267 269 269 270 270 271 276 262 260 276 296 309 320 336 343 343 346
11 11 18 26 18 13 347 289 261 237 245 254 249 255 222 199 247 256 240 262 265 272 273 266 265 270 273 273 270 268 271 271 272 267 261 276 295 308 322 332 339 342 344
12 12 6 9 355 359 1 337 311 266 236 249 267 232 213 209 237 247 239 231 257 281 290 281 296 293 298 290 283 271 259 256 263 266 267 279 297 311 321 330 340 342 347
3 7 4 355 4 357 359 5 332 321 262 237 223 217 197 213 243 238 228 231 269 272 281 326 350 336 329 307 311 305 278 260 250 249 254 265 284 308 319 331 338 344 345
5 359 358 1 357 335 344 354 358 346 330 290 278 208 239 265 251 245 250 248 254 258 252 266 311 325 322 321 314 311 301 270 255 248 253 262 278 305 322 329 339 342 348
2 8 7 1 2 2 340 347 348 352 350 305 270 258 248 243 266 245 206 228 241 248 255 270 285 311 319 319 314 308 305 288 261 253 260 262 279 297 319 328 341 344 349
356 359 5 5 3 6 5 356 324 335 342 345 303 279 257 241 237 230 207 204 238 235 264 250 275 289 305 309 308 306 300 292 268 251 253 257 274 298 323 324 338 346 350
345 351 356 359 5 6 11 7 5 346 322 325 340 325 281 265 237 237 237 236 252 249 242 255 280 291 291 306 305 301 297 292 272 252 244 249 267 290 309 326 335 349 352
330 338 347 354 358 3 1 10 11 6 358 333 318 325 320 283 263 245 253 256 257 256 258 278 290 298 314 309 301 301 294 291 277 249 246 251 252 270 296 321 334 350 352
332 319 326 341 348 350 358 359 5 13 5 357 328 306 296 295 287 279 275 270 265 264 275 288 294 300 310 312 306 302 293 287 276 254 244 247 260 272 286 308 336 351 354
345 331 308 316 331 343 345 354 356 2 7 3 353 325 293 288 292 275 265 267 268 268 277 285 302 303 312 310 310 312 304 291 288 265 259 256 261 271 281 302 335 351 353
332 336 335 306 309 322 335 340 350 352 358 1 3 359 322 291 292 284 271 265 266 276 282 285 297 298 308 307 306 308 309 294 271 253 266 288 254 250 263 299 326 355 356
322 325 330 332 305 305 315 326 335 348 354 358 0 0 355 305 302 289 276 268 267 273 279 284 294 297 304 300 299 304 304 285 263 262 259 276 268 245 241 282 332 352 355
307 311 318 323 324 305 296 305 315 330 347 356 0 1 359 355 311 277 271 254 259 270 279 284 293 302 305 302 298 302 305 256 239 240 266 272 282 255 220 301 337 355 0
299 302 304 313 316 312 298 290 300 312 329 344 355 1 1 354 332 301 263 256 250 259 265 277 295 316 321 305 302 294 287 184 192 22 10 241 297 94 102 63 30 13 4
Wind_Speed_850mb
14 19 26 27 19 18 22 37 44 37 26 20 20 20 18 18 20 20 26 25 19 12 7 13 10 3 6 9 13 14 13 14 15 16 15 15 18 20 22 25 27 29 30
18 18 22 20 15 11 25 36 34 27 23 21 24 21 19 19 22 24 22 34 23 35 37 27 24 11 3 8 13 10 10 9 14 13 14 16 18 20 22 26 27 29 34
13 22 17 11 11 13 20 27 32 33 30 24 20 20 22 23 26 26 32 29 28 34 27 17 13 19 8 5 8 6 6 9 12 10 13 14 17 17 22 25 27 30 32
21 18 13 14 12 15 16 23 31 34 31 27 25 28 28 28 28 27 32 30 34 31 27 16 14 11 17 7 3 4 2 6 8 10 13 15 18 19 22 24 28 31 33
25 19 20 15 11 16 18 19 24 27 30 33 35 33 27 27 28 30 33 34 34 34 31 30 14 17 17 20 8 3 3 4 5 8 12 15 16 20 21 24 30 30 33
33 34 29 25 17 18 19 29 31 35 36 33 31 27 25 25 26 28 29 32 40 44 41 33 25 22 22 19 21 12 3 4 4 8 10 13 15 19 22 24 28 30 32
34 35 34 36 30 28 29 32 34 36 39 35 28 22 21 22 21 22 26 25 28 29 29 25 23 23 24 25 22 16 12 4 2 5 6 11 13 16 21 24 27 30 34
26 26 22 34 34 37 32 35 40 39 36 36 28 22 16 17 16 16 18 19 18 19 20 18 18 19 21 23 25 27 23 16 6 2 5 9 12 16 20 25 26 31 34
26 23 21 18 29 27 31 37 37 35 40 41 28 18 10 7 11 16 16 19 18 18 17 16 14 15 18 18 20 24 24 23 20 13 6 6 9 12 18 22 27 30 34
29 21 15 19 15 19 26 34 31 33 35 40 32 20 13 12 7 5 8 11 18 18 17 18 16 17 18 19 19 21 20 20 18 15 11 11 11 12 16 21 27 30 34
37 32 22 16 14 12 21 27 26 28 31 31 37 31 31 23 11 7 1 9 14 17 16 17 16 16 18 21 20 21 19 17 14 15 13 11 12 15 14 17 24 29 34
48 41 33 26 20 11 17 24 31 26 29 24 24 27 16 8 8 5 11 18 19 16 19 19 18 19 20 22 21 23 21 19 16 15 14 12 12 16 15 17 21 27 34
46 48 38 29 30 26 15 14 21 34 22 27 24 23 20 17 10 19 20 19 14 14 15 17 19 18 19 21 22 21 21 20 18 16 13 12 12 16 16 17 20 26 33
50 47 35 28 29 27 22 18 20 23 33 30 31 22 23 13 17 18 16 15 10 10 14 16 14 15 14 17 18 17 18 18 17 16 14 12 14 15 15 15 20 25 32
49 47 42 28 22 26 30 29 19 20 24 23 23 29 31 20 18 24 22 23 25 12 8 6 10 15 16 16 15 15 17 19 19 18 15 13 13 13 15 15 19 24 30
40 40 37 37 27 22 23 26 25 23 13 10 13 16 13 20 32 37 32 19 19 17 16 16 19 22 20 18 18 18 18 18 17 17 15 14 12 11 13 14 18 24 31
36 38 40 36 35 28 22 19 26 26 24 13 20 24 29 36 39 28 24 24 24 20 25 18 17 19 21 21 19 20 20 19 17 17 15 13 12 11 11 14 18 24 30
37 37 38 38 37 35 30 27 20 23 30 24 12 12 12 17 20 21 26 21 22 24 26 19 13 18 23 25 24 23 21 19 16 16 16 14 12 10 10 13 16 24 31
30 32 32 33 37 41 38 31 28 23 15 24 20 12 12 11 13 17 21 24 26 30 18 15 21 21 21 24 28 25 24 20 16 17 16 15 12 10 11 13 18 22 30
28 25 27 30 32 34 39 38 34 27 24 18 15 13 10 9 10 9 13 19 21 18 20 19 17 15 14 20 30 27 24 21 19 19 16 14 12 10 11 13 18 23 29
32 30 25 22 26 30 33 37 37 35 30 23 23 14 14 14 13 13 14 15 14 14 13 13 15 17 17 22 24 23 24 23 21 21 22 20 16 13 11 12 16 23 29
35 31 29 27 24 25 29 31 34 37 35 31 23 19 15 15 13 14 15 13 14 14 13 13 14 17 15 20 20 20 21 20 16 19 21 23 22 15 12 11 14 20 30
40 36 33 31 27 25 24 29 30 32 34 35 33 26 14 11 14 13 15 15 14 14 16 15 13 14 13 17 19 21 20 18 17 19 15 9 18 16 12 9 12 18 29
42 41 37 35 31 27 26 24 26 26 30 33 35 33 25 5 7 11 11 13 14 14 15 15 15 16 17 16 17 19 19 14 13 12 14 10 12 12 9 8 11 18 26
46 41 38 37 36 29 28 27 26 23 24 27 30 32 30 23 6 9 9 11 15 16 15 13 15 14 16 15 14 14 15 6 8 6 9 9 7 3 4 7 11 17 24
47 45 42 37 38 36 29 29 28 24 23 22 25 29 31 26 10 6 10 11 13 13 15 13 12 12 15 13 10 10 7 5 4 3 8 3 1 3 9 11 11 16 23
Wind_Direction_850mb
310 319 322 319 302 276 230 196 179 161 175 198 203 207 202 189 176 168 156 159 136 122 137 116 97 61 53 54 75 69 69 62 64 60 46 33 29 26 19 14 11 11 9
313 322 326 320 303 243 185 176 165 164 168 195 201 197 194 189 182 174 167 171 159 141 142 128 113 69 29 19 78 74 65 55 61 49 44 29 21 21 10 11 10 8 10
306 319 325 298 312 236 220 189 175 182 180 196 209 205 196 192 188 184 180 180 183 172 169 164 126 100 49 24 65 81 62 40 44 38 31 16 21 11 11 8 9 11 3
310 317 302 269 262 247 214 204 182 178 181 189 204 207 198 197 197 189 179 187 190 205 220 229 196 154 99 76 5 43 39 38 32 25 31 26 9 10 13 6 12 3 3
302 299 288 282 254 228 213 203 186 184 184 194 200 201 207 208 209 208 202 204 213 218 232 256 257 207 164 123 68 301 329 4 11 16 27 29 6 8 10 6 10 1 1
287 280 267 269 258 218 209 203 201 189 191 200 202 208 202 215 216 217 216 221 227 234 241 249 248 232 219 173 138 127 70 329 349 20 28 31 10 6 7 5 3 360 358
286 288 291 281 244 238 219 212 205 204 195 198 201 200 205 210 224 226 227 224 232 237 238 238 235 223 217 217 206 193 164 182 333 14 27 26 11 6 1 2 2 359 359
320 303 298 280 287 254 239 228 216 205 200 197 193 203 212 222 223 229 235 235 230 231 234 231 228 229 226 227 237 247 246 247 250 313 20 15 10 8 1 4 357 359 358
340 328 315 302 301 274 257 240 225 217 204 195 197 186 187 210 201 241 233 245 243 237 236 234 234 241 244 243 245 253 258 266 268 275 275 319 345 0 3 0 357 357 358
350 347 348 315 294 290 260 237 236 232 221 210 199 193 175 190 175 169 216 244 255 246 245 247 243 248 253 257 259 264 266 269 274 268 267 287 307 333 355 359 355 356 355
14 360 2 356 308 273 261 248 237 238 241 229 224 223 229 246 248 226 336 338 276 262 256 258 255 258 265 265 268 272 280 283 277 269 269 284 304 310 329 349 352 351 351
17 22 25 18 2 329 268 252 232 229 244 252 248 228 221 194 231 229 263 275 288 276 260 263 263 264 267 269 269 270 270 271 276 262 260 276 296 309 320 336 343 343 346
11 11 18 26 18 13 347 289 261 237 245 254 249 255 222 199 247 256 240 262 265 272 273 266 265 270 273 273 270 268 271 271 272 267 261 276 295 308 322 332 339 342 344
12 12 6 9 355 359 1 337 311 266 236 249 267 232 213 209 237 247 239 231 257 281 290 281 296 293 298 290 283 271 259 256 263 266 267 279 297 311 321 330 340 342 347
3 7 4 355 4 357 359 5 332 321 262 237 223 217 197 213 243 238 228 231 269 272 281 326 350 336 329 307 311 305 278 260 250 249 254 265 284 308 319 331 338 344 345
5 359 358 1 357 335 344 354 358 346 330 290 278 208 239 265 251 245 250 248 254 258 252 266 311 325 322 321 314 311 301 270 255 248 253 262 278 305 322 329 339 342 348
2 8 7 1 2 2 340 347 348 352 350 305 270 258 248 243 266 245 206 228 241 248 255 270 285 311 319 319 314 308 305 288 261 253 260 262 279 297 319 328 341 344 349
356 359 5 5 3 6 5 356 324 335 342 345 303 279 257 241 237 230 207 204 238 235 264 250 275 289 305 309 308 306 300 292 268 251 253 257 274 298 323 324 338 346 350
345 351 356 359 5 6 11 7 5 346 322 325 340 325 281 265 237 237 237 236 252 249 242 255 280 291 291 306 305 301 297 292 272 252 244 249 267 290 309 326 335 349 352
330 338 347 354 358 3 1 10 11 6 358 333 318 325 320 283 263 245 253 256 257 256 258 278 290 298 314 309 301 301 294 291 277 249 246 251 252 270 296 321 334 350 352
332 319 326 341 348 350 358 359 5 13 5 357 328 306 296 295 287 279 275 270 265 264 275 288 294 300 310 312 306 302 293 287 276 254 244 247 260 272 286 308 336 351 354
345 331 308 316 331 343 345 354 356 2 7 3 353 325 293 288 292 275 265 267 268 268 277 285 302 303 312 310 310 312 304 291 288 265 259 256 261 271 281 302 335 351 353
332 336 335 306 309 322 335 340 350 352 358 1 3 359 322 291 292 284 271 265 266 276 282 285 297 298 308 307 306 308 309 294 271 253 266 288 254 250 263 299 326 355 356
322 325 330 332 305 305 315 326 335 348 354 358 0 0 355 305 302 289 276 268 267 273 279 284 294 297 304 300 299 304 304 285 263 262 259 276 268 245 241 282 332 352 355
307 311 318 323 324 305 296 305 315 330 347 356 0 1 359 355 311 277 271 254 259 270 279 284 293 302 305 302 298 302 305 256 239 240 266 272 282 255 220 301 337 355 0
299 302 304 313 316 312 298 290 300 312 329 344 355 1 1 354 332 301 263 256 250 259 265 277 295 316 321 305 302 294 287 184 192 22 10 241 297 94 102 63 30 13 4